Location: Pasadena, ca
(34.1243°N, 118.1037°W)
Time: 14:37:17
(UTC-08:00)

Vanguard 2 - Visible Passes

Search period start: 13 December 2017 00:00
Search period end: 23 December 2017 00:00
Orbit: 553 x 2939 km, 32.9° (Epoch: 13 December)

Date Brightness Start Highest point End Pass type
(mag) Time Alt. Az. Time Alt. Az. Time Alt. Az.
13 Dec 7.3 17:14:24 10° W 17:20:03 78° S 17:24:10 10° E visible
13 Dec 9.2 19:24:04 10° W 19:25:58 23° WSW 19:25:58 23° WSW visible
14 Dec 7.3 17:32:40 10° W 17:38:09 75° S 17:41:50 13° E visible
14 Dec 9.8 19:42:25 10° W 19:43:17 15° WSW 19:43:17 15° WSW visible
15 Dec 7.4 17:50:56 10° W 17:56:13 65° SSW 17:59:11 18° ESE visible
16 Dec 7.7 18:09:12 10° W 18:14:14 51° SSW 18:16:36 23° SE visible
17 Dec 8.3 18:27:31 10° W 18:32:12 37° SSW 18:34:04 24° SSE visible
18 Dec 8.8 18:46:01 10° W 18:50:04 26° SSW 18:51:36 21° S visible
19 Dec 9.4 19:04:50 10° WSW 19:07:51 17° SSW 19:09:13 15° S visible
20 Dec 8.5 17:11:43 10° W 17:18:16 50° SSW 17:22:40 10° SE visible
21 Dec 9.0 17:30:09 10° W 17:36:10 37° SSW 17:40:22 10° SE visible
22 Dec 9.6 17:48:45 10° W 17:53:56 26° SW 17:57:46 10° SSE visible
